[[{"header":{"parameterUnit":"m.s-1","parameterCategory":1,"la1":30.2991,"la2":30.254,"lo1":-89.0895,"lo2":-89.0444,"dy":0.0017,"dx":0.0017,"nx":28,"ny":28,"refTime":"2025-09-18T21:00:00:Z","depth":0,"parameterNumber":2,"parameterNumberName":"U-component_of_WINDS"},"data":[0,0,0,0,0,0,0,0,0,0,0,0,0,0,0,0,0,0,0,0,0,0,0,0,0,0,0,0,0,0,0,0,0,0,0,0,0,0,0,0,0,0,0,0,0,0,0,0,0,0,0,0,0,0,0,0,0,0,0.4225,0.4226,0,0.4353,0.4355,0.4356,0.4368,0.4367,0.4366,0.4364,0.45,0.4505,0.451,0,0,0,0,0,0,0,0,0,0,0,0,0,0.3993,0.3997,0.4225,0.4226,0.4228,0.4353,0.4355,0.4357,0.4369,0.4367,0.4365,0.4364,0.4499,0.4504,0.451,0,0,0,0,0,0,0,0,0,0,0,0,0,0.4105,0.3998,0.4224,0.4249,0.4252,0.4353,0.4355,0.4357,0.4369,0.4367,0.4365,0.4363,0.4497,0.4504,0.4511,0.4597,0,0,0.4534,0.4537,0,0,0,0,0,0,0,0,0.4098,0.4113,0.4244,0.4247,0.4251,0.4343,0.4323,0.4438,0.437,0.4325,0.4364,0.4362,0.445,0.4461,0.449,0.4604,0.4609,0.4534,0.4539,0.4542,0.4544,0,0,0,0,0,0,0,0.4091,0.4108,0.4276,0.4245,0.425,0.4255,0.4268,0.4345,0.4397,0.4329,0.433,0.4345,0.4452,0.4482,0.4493,0.4611,0.4534,0.454,0.4545,0.4548,0.4803,0.4805,0,0,0,0,0,0,0.4078,0.4101,0.4272,0.4279,0.4168,0.426,0.4276,0.4315,0.4396,0.4407,0.4346,0.4345,0.4471,0.4484,0.4498,0.4604,0.4542,0.4549,0.4553,0.48,0.4803,0.4806,0,0,0,0,0,0,0.4073,0.4093,0.4266,0.4191,0.4213,0.4266,0.4311,0.4319,0.435,0.441,0.442,0.4368,0.447,0.4487,0.4572,0.4608,0.4552,0.4559,0.4797,0.4801,0.4804,0.4816,0,0,0,0,0,0,0.4066,0.4091,0.4123,0.4191,0.4217,0.4338,0.4313,0.4323,0.4362,0.4361,0.4433,0.4443,0.447,0.4561,0.4579,0.4618,0.4564,0.4794,0.4799,0.4803,0.4813,0.4819,0.4825,0,0,0,0,0,0.4058,0.4122,0.4125,0.4145,0.4259,0.434,0.4354,0.4383,0.4365,0.4399,0.4437,0.444,0.4601,0.457,0.459,0.4631,0.4792,0.4798,0.4803,0.481,0.4818,0.4825,0,0,0,0,0,0,0.4059,0.4132,0.4135,0.4224,0.4275,0.4341,0.4385,0.4391,0.445,0.4447,0.4481,0.4497,0.458,0.4615,0.4578,0.4719,0.4695,0.4705,0.4693,0.4702,0.4708,0.4698,0.457,0,0,0,0,0,0.4069,0.4127,0.4189,0.4261,0.4286,0.4331,0.4367,0.4385,0.444,0.4462,0.4507,0.4561,0.4624,0.4665,0.4726,0.4818,0.4833,0.4856,0.4862,0.4867,0.4875,0.4926,0.4937,0.4823,0.4823,0.4823,0,0,0.4091,0.4138,0.4174,0.4262,0.4304,0.4365,0.4349,0.4414,0.446,0.4473,0.4555,0.4589,0.4653,0.4741,0.4782,0.4772,0.491,0.4874,0.4878,0.4883,0.4933,0.4943,0.4953,0.4827,0.4826,0.4825,0,0,0.4163,0.4204,0.4269,0.4311,0.4374,0.4403,0.4418,0.4484,0.4507,0.459,0.46,0.4656,0.4763,0.4808,0.4844,0.4932,0.4938,0.4951,0.4985,0.5034,0.5043,0.5051,0.5082,0.5093,0.4959,0.4959,0.4959,0,0.4183,0.4274,0.4302,0.4366,0.4405,0.4418,0.4484,0.4523,0.4604,0.4631,0.4618,0.4753,0.4796,0.4895,0.4916,0.4946,0.4965,0.4943,0.5039,0.5047,0.5055,0.5085,0.5097,0.496,0.496,0.496,0.496,0,0.4295,0.4358,0.4403,0.4478,0.4522,0.4588,0.4626,0.4668,0.4681,0.4712,0.4796,0.4849,0.492,0.4945,0.496,0.5046,0.5038,0.5032,0.5008,0.5067,0.5096,0.5107,0.4962,0.4962,0.4961,0.4961,0,0,0.4371,0.4461,0.4477,0.4511,0.4581,0.4631,0.4697,0.4766,0.4801,0.4856,0.4912,0.5003,0.4997,0.5039,0.5058,0.5101,0.5167,0.509,0.5092,0.5102,0.5265,0.5269,0.5282,0.5171,0.5174,0.5175,0.526,0,0.445,0.4566,0.4593,0.4693,0.4752,0.4765,0.4822,0.4872,0.4903,0.4958,0.4992,0.5055,0.5043,0.5068,0.5112,0.515,0.52,0.5144,0.5225,0.5227,0.5208,0.5297,0.5301,0.5378,0.5271,0.5273,0.5275,0,0.4558,0.4614,0.4719,0.4781,0.4807,0.4858,0.4923,0.4975,0.5033,0.5052,0.5098,0.5113,0.5183,0.5156,0.5253,0.5214,0.5249,0.5273,0.5277,0.5285,0.5254,0.5307,0.5404,0.5415,0.5293,0.5291,0.529,0,0.4602,0.4704,0.478,0.4809,0.4884,0.4919,0.4952,0.5007,0.5047,0.5104,0.513,0.5196,0.5231,0.5282,0.5315,0.5292,0.5409,0.5385,0.5427,0.5427,0.5451,0.5449,0.5554,0.5474,0.5474,0.5474,0.5474,0,0.4687,0.4751,0.4801,0.4847,0.492,0.495,0.5021,0.5055,0.5104,0.5158,0.5174,0.5224,0.5265,0.5321,0.5347,0.5424,0.544,0.5458,0.5464,0.5456,0.5454,0.5479,0.5474,0.5477,0.5476,0.5476,0.5475,0,0.4749,0.4784,0.4868,0.4931,0.4949,0.4999,0.5054,0.5101,0.5131,0.52,0.5218,0.5266,0.5334,0.5371,0.5456,0.5474,0.5559,0.5562,0.5539,0.5541,0.5581,0.5576,0.5705,0.5724,0.5632,0.5633,0.5634,0,0.48,0.485,0.4918,0.4955,0.4988,0.5047,0.5087,0.512,0.5161,0.5229,0.5268,0.5336,0.5391,0.5499,0.5542,0.5607,0.5612,0.5653,0.5622,0.5613,0.5613,0.5609,0.5614,0.5658,0.5659,0.566,0.566,0,0.4888,0.4903,0.496,0.5022,0.5069,0.5121,0.5172,0.5201,0.5242,0.5288,0.5356,0.5399,0.5485,0.5553,0.5621,0.5656,0.5666,0.567,0.5683,0.5675,0.5659,0.5667,0.5553,0.5666,0.5666,0.5665,0.5665,0.5665,0.4946,0.499,0.5045,0.5107,0.5149,0.5196,0.5242,0.5278,0.5335,0.5407,0.5423,0.5495,0.5551,0.5644,0.5681,0.5738,0.573,0.575,0.5754,0.5758,0.5759,0.565,0.5751,0.5751,0.575,0.575,0.575,0,0.5034,0.507,0.5127,0.5197,0.5246,0.5249,0.5306,0.5347,0.5409,0.5461,0.5515,0.5593,0.5658,0.5707,0.5774,0.581,0.5816,0.5827,0.5824,0.5832,0.5763,0.5744,0.5821,0.5821,0.5821,0.5821,0.5821,0.5821,0.5086,0.5161,0.5182,0.5278,0.5313,0.5383,0.5415,0.5458,0.5499,0.5585,0.5639,0.567,0.572,0.579,0.5851,0.5863,0.5887,0.5897,0.591,0.5844,0.5837,0.583,0.5812,0.5902,0.5902,0.5974,0.5975,0.5976]},{"header":{"parameterUnit":"m.s-1","parameterCategory":1,"la1":30.2991,"la2":30.254,"lo1":-89.0895,"lo2":-89.0444,"dy":0.0017,"dx":0.0017,"nx":28,"ny":28,"refTime":"2025-09-18T21:00:00:Z","depth":0,"parameterNumber":3,"parameterNumberName":"V-component_of_WINDS"},"data":[0,0,0,0,0,0,0,0,0,0,0,0,0,0,0,0,0,0,0,0,0,0,0,0,0,0,0,0,0,0,0,0,0,0,0,0,0,0,0,0,0,0,0,0,0,0,0,0,0,0,0,0,0,0,0,0,0,0,0.9304,0.9304,0,0.9271,0.9271,0.927,0.9241,0.924,0.924,0.924,0.9204,0.9204,0.9203,0,0,0,0,0,0,0,0,0,0,0,0,0,0.9338,0.9337,0.9304,0.9304,0.9303,0.9271,0.9271,0.927,0.9241,0.924,0.924,0.9239,0.9204,0.9204,0.9203,0,0,0,0,0,0,0,0,0,0,0,0,0,0.9316,0.9337,0.9304,0.9285,0.9283,0.9271,0.9271,0.927,0.9241,0.924,0.924,0.9239,0.9205,0.9204,0.9203,0.9208,0,0,0.92,0.92,0,0,0,0,0,0,0,0,0.9317,0.9314,0.9288,0.9286,0.9284,0.9259,0.9269,0.9249,0.9241,0.9257,0.924,0.9239,0.9223,0.922,0.9215,0.9206,0.9204,0.92,0.9199,0.9199,0.9199,0,0,0,0,0,0,0,0.9318,0.9316,0.9291,0.9288,0.9285,0.9276,0.9273,0.9265,0.9243,0.9255,0.9253,0.925,0.9222,0.9216,0.9214,0.9204,0.92,0.9199,0.9199,0.9198,0.9193,0.9193,0,0,0,0,0,0,0.9323,0.9317,0.9292,0.929,0.9299,0.9276,0.9272,0.9268,0.9243,0.9239,0.925,0.9248,0.9218,0.9215,0.9213,0.9214,0.9199,0.9198,0.9198,0.9192,0.9193,0.9193,0,0,0,0,0,0,0.9324,0.9321,0.9293,0.9303,0.9299,0.9276,0.9272,0.9267,0.9262,0.9239,0.9235,0.9249,0.9218,0.9214,0.9208,0.9213,0.9198,0.9197,0.9192,0.9192,0.9193,0.9219,0,0,0,0,0,0,0.9325,0.9322,0.9325,0.9303,0.9298,0.9291,0.9272,0.9267,0.9261,0.9258,0.9237,0.9233,0.9217,0.921,0.9207,0.9211,0.9196,0.9191,0.9192,0.9193,0.9218,0.922,0.9223,0,0,0,0,0,0.9327,0.9334,0.9325,0.9322,0.9301,0.9291,0.9288,0.927,0.9261,0.9263,0.9247,0.9234,0.9213,0.921,0.9207,0.921,0.9191,0.9192,0.9193,0.9216,0.922,0.9223,0,0,0,0,0,0,0.9356,0.9331,0.9321,0.9321,0.9308,0.9286,0.9288,0.9275,0.9264,0.9262,0.9239,0.9235,0.9231,0.922,0.9217,0.9212,0.92,0.92,0.9219,0.9222,0.9224,0.9227,0.9195,0,0,0,0,0,0.9363,0.9358,0.9335,0.9337,0.9332,0.9311,0.9306,0.9293,0.9278,0.9273,0.9257,0.9243,0.9233,0.9227,0.9217,0.9216,0.9209,0.9217,0.9219,0.9221,0.9222,0.9217,0.922,0.9196,0.9196,0.9196,0,0,0.9376,0.9362,0.936,0.9343,0.9332,0.9325,0.9306,0.9301,0.9295,0.9272,0.9265,0.9253,0.9235,0.9231,0.9229,0.9222,0.9227,0.9223,0.9225,0.9224,0.9219,0.9221,0.9223,0.9197,0.9197,0.9197,0,0,0.9397,0.9387,0.9386,0.9375,0.9357,0.9343,0.9343,0.9322,0.9313,0.9306,0.9287,0.9279,0.9263,0.9251,0.9242,0.9255,0.9241,0.9252,0.9266,0.9262,0.9264,0.9265,0.9268,0.9269,0.9253,0.9253,0.9253,0,0.9416,0.9406,0.9387,0.9382,0.9374,0.9352,0.935,0.934,0.932,0.9314,0.9308,0.9285,0.9272,0.9263,0.9266,0.9261,0.9258,0.9255,0.9265,0.9267,0.9268,0.927,0.9271,0.9254,0.9254,0.9254,0.9254,0,0.9429,0.9422,0.9424,0.9405,0.9397,0.9394,0.9372,0.9367,0.9354,0.9339,0.9331,0.9314,0.9298,0.9295,0.9283,0.9284,0.928,0.927,0.9257,0.9271,0.9273,0.9274,0.9256,0.9256,0.9255,0.9255,0,0,0.9468,0.9437,0.9438,0.9428,0.9406,0.94,0.9394,0.938,0.9374,0.936,0.9354,0.9339,0.9328,0.9319,0.9304,0.9301,0.931,0.9291,0.929,0.9293,0.9307,0.9314,0.9316,0.93,0.93,0.93,0.9308,0,0.9484,0.9474,0.9455,0.945,0.9442,0.942,0.9415,0.94,0.9386,0.9376,0.936,0.935,0.9337,0.9331,0.9327,0.931,0.9312,0.9309,0.9292,0.9292,0.9296,0.9317,0.9325,0.9333,0.9308,0.9308,0.9308,0,0.9501,0.9488,0.9483,0.9459,0.9455,0.9451,0.9434,0.9426,0.9407,0.9397,0.9385,0.9369,0.936,0.9349,0.9335,0.9333,0.9325,0.9315,0.9315,0.9312,0.93,0.9313,0.9335,0.9335,0.931,0.9309,0.9309,0,0.9528,0.9509,0.9502,0.9495,0.9468,0.9465,0.9453,0.9435,0.9426,0.9411,0.9405,0.9389,0.938,0.9367,0.9346,0.9341,0.9333,0.9322,0.9323,0.9324,0.9322,0.9323,0.9342,0.9319,0.9319,0.9319,0.9319,0,0.9546,0.9543,0.9514,0.9509,0.9504,0.9482,0.9477,0.9464,0.9447,0.9438,0.9418,0.941,0.9384,0.9372,0.9356,0.9345,0.9342,0.9332,0.9327,0.9333,0.9334,0.9327,0.9325,0.9319,0.9319,0.9319,0.9319,0,0.9575,0.9555,0.9546,0.9521,0.9514,0.9512,0.9489,0.9483,0.9468,0.9457,0.9453,0.9428,0.9413,0.9391,0.937,0.9358,0.935,0.9343,0.9356,0.9353,0.9355,0.9355,0.937,0.937,0.9349,0.9349,0.9349,0,0.9587,0.9584,0.9558,0.9551,0.954,0.953,0.952,0.9498,0.9489,0.9466,0.9463,0.9446,0.9432,0.9408,0.9387,0.937,0.9362,0.9369,0.936,0.9365,0.936,0.936,0.9359,0.9371,0.9371,0.9371,0.9372,0,0.9611,0.9601,0.9589,0.9573,0.9562,0.9548,0.9533,0.9528,0.9502,0.9493,0.9477,0.9466,0.9444,0.9427,0.9406,0.9393,0.9377,0.9375,0.9374,0.9379,0.9386,0.938,0.936,0.9374,0.9374,0.9374,0.9374,0.9374,0.963,0.9625,0.9606,0.9592,0.9579,0.9565,0.9557,0.954,0.9528,0.9508,0.9495,0.948,0.9459,0.943,0.9417,0.9403,0.9397,0.9396,0.9396,0.9396,0.9397,0.9389,0.94,0.9399,0.9399,0.9399,0.9399,0,0.9651,0.9637,0.9625,0.9604,0.9593,0.958,0.9562,0.9553,0.9541,0.9523,0.9509,0.949,0.9473,0.945,0.9431,0.9424,0.9417,0.942,0.942,0.9416,0.9405,0.9406,0.9426,0.9426,0.9426,0.9426,0.9426,0.9426,0.966,0.9651,0.9638,0.9621,0.9607,0.9592,0.9583,0.9569,0.9555,0.9535,0.952,0.9506,0.9485,0.9464,0.9447,0.9441,0.9434,0.9439,0.9431,0.942,0.9417,0.9415,0.9417,0.9439,0.9439,0.9443,0.9443,0.9443]}]]